When you browse on this site, cookies collect data to enhance your experience and personalize the content and advertising you see.
Visit our Privacy Policy to learn more. By continuing to use the site, you agree to this use of cookies and data.
  • In Österreich
  • Länderverzeichnis
  • Für 7 Tage
  • Wassertemperatur
  • Wetterkarte
  • News
  • Widgets
  • user-avatar
    Anmelden

    Stündliche Wetter Zorya

    Heute, 28 Januar, Dienstag

    Zeit Temperatur Niederschläge Wind Luftdruck Luftfeuchtigkeit
    00:00 +3°C° 0 mm 1 m/S 753 mmHg 86%
    01:00 +3°C° 0 mm 1 m/S 753 mmHg 88%
    02:00 +3°C° 0 mm 1 m/S 753 mmHg 90%
    03:00 +3°C° 0 mm 1 m/S 752 mmHg 92%
    04:00 +3°C° 0 mm 1 m/S 752 mmHg 93%
    05:00 +3°C° 0 mm 1 m/S 752 mmHg 95%
    06:00 +3°C° 0 mm 1 m/S 751 mmHg 96%
    07:00 +3°C° 0 mm 1 m/S 752 mmHg 96%
    08:00 +3°C° 0 mm 1 m/S 752 mmHg 96%
    09:00 +3°C° 0 mm 1 m/S 752 mmHg 96%
    10:00 +4°C° 0 mm 2 m/S 752 mmHg 92%
    11:00 +5°C° 0 mm 2 m/S 751 mmHg 87%
    12:00 +5°C° 0 mm 3 m/S 751 mmHg 83%
    13:00 +5°C° 0 mm 3 m/S 751 mmHg 81%
    14:00 +7°C° 0 mm 3 m/S 750 mmHg 79%
    15:00 +7°C° 0 mm 3 m/S 750 mmHg 78%
    16:00 +5°C° 0 mm 3 m/S 750 mmHg 79%
    17:00 +6°C° 0 mm 2 m/S 750 mmHg 79%
    18:00 +5°C° 0 mm 2 m/S 749 mmHg 80%
    19:00 +4°C° 0 mm 3 m/S 749 mmHg 79%
    20:00 +4°C° 0 mm 3 m/S 749 mmHg 77%
    21:00 +4°C° 0 mm 3 m/S 749 mmHg 75%
    22:00 +4°C° 0.1 mm 3 m/S 749 mmHg 77%
    23:00 +4°C° 0.1 mm 3 m/S 749 mmHg 79%

    Morgen, 29 Januar, Mittwoch

    Zeit Temperatur Niederschläge Wind Luftdruck Luftfeuchtigkeit
    00:00 +4°C° 0.1 mm 3 m/S 748 mmHg 81%
    01:00 +4°C° 0.3 mm 3 m/S 748 mmHg 85%
    02:00 +4°C° 0.3 mm 3 m/S 748 mmHg 88%
    03:00 +4°C° 0.3 mm 4 m/S 747 mmHg 92%
    04:00 +4°C° 0.1 mm 4 m/S 747 mmHg 91%
    05:00 +3°C° 0.1 mm 4 m/S 746 mmHg 90%
    06:00 +3°C° 0.1 mm 4 m/S 746 mmHg 88%
    07:00 +3°C° 0.3 mm 4 m/S 746 mmHg 91%
    08:00 +2°C° 0.3 mm 5 m/S 746 mmHg 94%
    09:00 +2°C° 0.3 mm 5 m/S 745 mmHg 97%
    10:00 +3°C° 0.2 mm 5 m/S 745 mmHg 96%
    11:00 +3°C° 0.2 mm 6 m/S 745 mmHg 95%
    12:00 +4°C° 0.2 mm 7 m/S 745 mmHg 95%
    13:00 +4°C° 0.3 mm 7 m/S 745 mmHg 92%
    14:00 +4°C° 0.3 mm 7 m/S 744 mmHg 89%
    15:00 +4°C° 0.3 mm 7 m/S 744 mmHg 86%
    16:00 +4°C° 0 mm 6 m/S 744 mmHg 87%
    17:00 +4°C° 0 mm 6 m/S 744 mmHg 89%
    18:00 +5°C° 0 mm 5 m/S 744 mmHg 90%
    19:00 +4°C° 0 mm 6 m/S 744 mmHg 90%
    20:00 +4°C° 0 mm 7 m/S 744 mmHg 90%
    21:00 +4°C° 0 mm 8 m/S 743 mmHg 90%
    22:00 +4°C° 0.5 mm 8 m/S 743 mmHg 92%
    23:00 +3°C° 0.5 mm 9 m/S 743 mmHg 93%

    übermorgen, 30 Januar, Donnerstag

    Zeit Temperatur Niederschläge Wind Luftdruck Luftfeuchtigkeit
    00:00 +3°C° 0.5 mm 9 m/S 743 mmHg 94%
    01:00 +2°C° 0.7 mm 8 m/S 743 mmHg 87%
    02:00 +3°C° 0.7 mm 7 m/S 744 mmHg 80%
    03:00 +2°C° 0.7 mm 5 m/S 744 mmHg 72%
    04:00 +2°C° 0 mm 5 m/S 744 mmHg 74%
    05:00 +1°C° 0 mm 4 m/S 745 mmHg 76%
    06:00 +1°C° 0 mm 3 m/S 745 mmHg 78%
    07:00 0°C° 0 mm 4 m/S 746 mmHg 77%
    08:00 0°C° 0 mm 5 m/S 746 mmHg 77%
    09:00 -1°C° 0 mm 6 m/S 746 mmHg 77%
    10:00 +2°C° 0 mm 6 m/S 746 mmHg 69%
    11:00 +3°C° 0 mm 7 m/S 746 mmHg 60%
    12:00 +4°C° 0 mm 8 m/S 746 mmHg 52%
    13:00 +4°C° 0 mm 8 m/S 746 mmHg 52%
    14:00 +4°C° 0 mm 8 m/S 746 mmHg 52%
    15:00 +5°C° 0 mm 8 m/S 746 mmHg 51%
    16:00 +4°C° 0 mm 7 m/S 746 mmHg 56%
    17:00 +3°C° 0 mm 6 m/S 745 mmHg 61%
    18:00 +2°C° 0 mm 5 m/S 745 mmHg 67%
    19:00 +2°C° 0 mm 5 m/S 745 mmHg 69%
    20:00 +1°C° 0 mm 5 m/S 745 mmHg 70%
    21:00 +1°C° 0 mm 5 m/S 746 mmHg 72%
    22:00 +1°C° 0 mm 5 m/S 746 mmHg 73%
    23:00 0°C° 0 mm 5 m/S 745 mmHg 74%

    31 Januar, Freitag

    Zeit Temperatur Niederschläge Wind Luftdruck Luftfeuchtigkeit
    00:00 0°C° 0 mm 5 m/S 745 mmHg 75%
    01:00 0°C° 0 mm 5 m/S 745 mmHg 77%
    02:00 -2°C° 0 mm 6 m/S 745 mmHg 79%
    03:00 -2°C° 0 mm 6 m/S 745 mmHg 81%
    04:00 -2°C° 0 mm 6 m/S 745 mmHg 80%
    05:00 -2°C° 0 mm 6 m/S 745 mmHg 80%
    06:00 -2°C° 0 mm 7 m/S 745 mmHg 79%
    07:00 -2°C° 0 mm 7 m/S 745 mmHg 82%
    08:00 -2°C° 0 mm 7 m/S 745 mmHg 84%
    09:00 -2°C° 0 mm 7 m/S 746 mmHg 86%
    10:00 -2°C° 0.1 mm 7 m/S 746 mmHg 84%
    11:00 -1°C° 0.1 mm 7 m/S 746 mmHg 82%
    12:00 0°C° 0.1 mm 7 m/S 746 mmHg 80%
    13:00 0°C° 0 mm 7 m/S 746 mmHg 77%
    14:00 0°C° 0 mm 7 m/S 746 mmHg 74%
    15:00 +2°C° 0 mm 7 m/S 746 mmHg 71%
    16:00 +1°C° 0 mm 6 m/S 746 mmHg 72%
    17:00 +1°C° 0 mm 5 m/S 746 mmHg 74%
    18:00 +1°C° 0 mm 5 m/S 746 mmHg 76%
    19:00 0°C° 0 mm 5 m/S 747 mmHg 76%
    20:00 0°C° 0 mm 5 m/S 747 mmHg 76%
    21:00 0°C° 0 mm 4 m/S 747 mmHg 76%
    22:00 0°C° 0 mm 4 m/S 747 mmHg 74%
    23:00 0°C° 0 mm 4 m/S 747 mmHg 73%

    1 Februar, Samstag

    Zeit Temperatur Niederschläge Wind Luftdruck Luftfeuchtigkeit
    00:00 +1°C° 0 mm 3 m/S 747 mmHg 72%
    01:00 +1°C° 0 mm 3 m/S 747 mmHg 74%
    02:00 +1°C° 0 mm 3 m/S 747 mmHg 76%
    03:00 -1°C° 0 mm 4 m/S 747 mmHg 79%
    04:00 0°C° 0 mm 3 m/S 747 mmHg 80%
    05:00 +1°C° 0 mm 2 m/S 746 mmHg 81%
    06:00 +2°C° 0 mm 1 m/S 746 mmHg 82%
    07:00 +2°C° 0 mm 1 m/S 747 mmHg 83%
    08:00 +1°C° 0 mm 2 m/S 747 mmHg 84%
    09:00 +1°C° 0 mm 2 m/S 747 mmHg 85%
    10:00 +3°C° 0 mm 2 m/S 747 mmHg 80%
    11:00 +4°C° 0 mm 2 m/S 747 mmHg 75%
    12:00 +5°C° 0 mm 2 m/S 748 mmHg 70%
    13:00 +5°C° 0 mm 2 m/S 748 mmHg 67%
    14:00 +5°C° 0 mm 2 m/S 747 mmHg 65%
    15:00 +6°C° 0 mm 2 m/S 747 mmHg 63%
    16:00 +4°C° 0 mm 3 m/S 748 mmHg 68%
    17:00 +4°C° 0 mm 3 m/S 748 mmHg 73%
    18:00 +3°C° 0 mm 3 m/S 748 mmHg 78%
    19:00 +3°C° 0 mm 3 m/S 748 mmHg 81%
    20:00 +2°C° 0 mm 3 m/S 748 mmHg 84%
    21:00 +2°C° 0 mm 3 m/S 749 mmHg 87%
    22:00 +2°C° 0 mm 3 m/S 749 mmHg 87%
    23:00 +2°C° 0 mm 3 m/S 749 mmHg 88%

    2 Februar, Sonntag

    Zeit Temperatur Niederschläge Wind Luftdruck Luftfeuchtigkeit
    00:00 +2°C° 0 mm 3 m/S 749 mmHg 88%
    01:00 +1°C° 0 mm 3 m/S 749 mmHg 88%
    02:00 +1°C° 0 mm 3 m/S 749 mmHg 89%
    03:00 +1°C° 0 mm 3 m/S 749 mmHg 89%
    04:00 +1°C° 0 mm 3 m/S 749 mmHg 90%
    05:00 0°C° 0 mm 4 m/S 749 mmHg 91%
    06:00 0°C° 0 mm 4 m/S 749 mmHg 92%
    07:00 0°C° 0 mm 4 m/S 749 mmHg 91%
    08:00 +1°C° 0 mm 4 m/S 749 mmHg 91%
    09:00 +1°C° 0 mm 5 m/S 749 mmHg 91%
    10:00 +2°C° 0.1 mm 5 m/S 749 mmHg 91%
    11:00 +2°C° 0.1 mm 6 m/S 748 mmHg 91%
    12:00 +3°C° 0.1 mm 7 m/S 748 mmHg 91%
    13:00 +3°C° 0.1 mm 7 m/S 747 mmHg 87%
    14:00 +4°C° 0.1 mm 8 m/S 747 mmHg 84%
    15:00 +5°C° 0.1 mm 8 m/S 746 mmHg 80%
    16:00 +5°C° 0.5 mm 9 m/S 745 mmHg 84%
    17:00 +3°C° 0.5 mm 9 m/S 745 mmHg 88%
    18:00 +3°C° 0.5 mm 9 m/S 744 mmHg 92%
    19:00 +4°C° 0.6 mm 8 m/S 744 mmHg 92%
    20:00 +5°C° 0.6 mm 7 m/S 744 mmHg 91%
    21:00 +5°C° 0.6 mm 6 m/S 744 mmHg 91%
    22:00 +5°C° 0 mm 6 m/S 744 mmHg 87%
    23:00 +4°C° 0 mm 6 m/S 744 mmHg 82%
    Mehr zeigen